Location: Gwatt
(46.7204°N, 7.6223°E)
Time: 16:50:44
(UTC+00:00)

deb Explorer IX - Pass Details

Date: 30 January 2021
Orbit: 537 x 1102 km, 38.8° (Epoch: 04 March)

Event Time Altitude Azimuth Distance (km) Brightness Sun altitude
Rises 19:17:24 0° 270° (W) 3,685 ? -28.7°
Reaches altitude 10° 19:20:48 10° 256° (WSW) 2,637 ? -29.3°
Maximum altitude 19:25:24 22° 209° (SSW) 1,799 ? -30.1°
Enters shadow 19:26:29 20° 193° (SSW) 1,816 ? -30.2°
Drops below altitude 10° 19:29:32 10° 160° (SSE) 2,331 - -30.8°
Sets 19:32:20 0° 145° (SE) 3,150 - -31.2°
